Bryce Canyon, UT

7:29 PM MST on January 19, 2018 (GMT -0700)
Bryce Canyon

Weather History for KBCE - September, 2013

Change the Weather History Date:

Wednesday, September 18, 2013

  Actual Average Record
Temperature  
Mean Temperature 54 °F -  
Max Temperature 71 °F 69 °F 81 °F (1962)
Min Temperature 39 °F 35 °F 18 °F (1971)
Degree Days  
Heating Degree Days 10    
Growing Degree Days 4 (Base 50)    
Moisture  
Dew Point 36 °F    
Average Humidity 54    
Maximum Humidity 93    
Minimum Humidity 21    
Precipitation  
Precipitation 0.00 in - - ()
Sea Level Pressure  
Sea Level Pressure 29.77 in    
Wind  
Wind Speed 8 mph (SW)    
Max Wind Speed 18 mph    
Max Gust Speed 25 mph    
Visibility 10 miles    
Events      
Averages and records for this station are not official NWS values.
T = Trace of Precipitation, MM = Missing Value Source: NWS Daily Summary

Daily Weather History Graph

Daily Weather History Graph

Search for Another Location

Airport or City:

Trip Planner

Search our weather history database for the weather conditions in past years. The results will help you decide how hot, cold, wet, or windy it might be!

Date:

Astronomy

Sep. 18, 2013 Rise Set
Actual Time 7:13 AM MDT 7:31 PM MDT
Civil Twilight 6:47 AM MDT 7:57 PM MDT
Nautical Twilight 6:16 AM MDT 8:28 PM MDT
Astronomical Twilight 5:44 AM MDT 8:59 PM MDT
Moon 6:57 PM MDT (9/18) 6:20 AM MDT (9/18)
Length of Visible Light 13h 10m
Length of Day
12h 17m
Waxing Gibbous, 99% of the Moon is Illuminated
Sep 18
Waxing Gibbous
Sep 19
Full
Sep 26
Last Quarter
Oct 4
New
Oct 11
First Quarter

Hourly Weather History & Observations

Time (MDT) Temp. Windchill Dew Point Humidity Pressure Visibility Wind Dir Wind Speed Gust Speed Precip Events Conditions
12:53 AM 55.9 °F - 43.0 °F 62% 29.72 in 10.0 mi South 8.1 mph - N/A   Mostly Cloudy
1:53 AM 54.0 °F - 42.1 °F 64% 29.72 in 10.0 mi SSW 8.1 mph - N/A   Mostly Cloudy
2:53 AM 52.0 °F - 41.0 °F 66% 29.73 in 10.0 mi South 9.2 mph - N/A   Clear
3:53 AM 52.0 °F - 41.0 °F 66% 29.71 in 10.0 mi SE 9.2 mph - N/A   Clear
4:53 AM 44.1 °F - 39.0 °F 82% 29.74 in 10.0 mi Calm Calm - N/A   Clear
5:53 AM 41.0 °F 39.0 °F 39.0 °F 93% 29.76 in 10.0 mi SW 3.5 mph - N/A   Clear
6:53 AM 39.0 °F 35.7 °F 37.0 °F 93% 29.80 in 10.0 mi WSW 4.6 mph - N/A   Clear
7:53 AM 42.1 °F 39.2 °F 39.0 °F 89% 29.82 in 10.0 mi WSW 4.6 mph - N/A   Clear
8:53 AM 53.1 °F - 42.1 °F 66% 29.79 in 10.0 mi SW 3.5 mph - N/A   Scattered Clouds
9:53 AM 62.1 °F - 37.0 °F 39% 29.77 in 10.0 mi Calm Calm - N/A   Clear
10:53 AM 66.0 °F - 36.0 °F 33% 29.76 in 10.0 mi South 8.1 mph - N/A   Clear
11:53 AM 66.9 °F - 33.1 °F 28% 29.75 in 10.0 mi SSW 12.7 mph 21.9 mph N/A   Clear
12:53 PM 68.0 °F - 30.9 °F 25% 29.74 in 10.0 mi South 17.3 mph 24.2 mph N/A   Clear
1:53 PM 69.1 °F - 33.1 °F 26% 29.74 in 10.0 mi SW 16.1 mph 24.2 mph N/A   Clear
2:53 PM 70.0 °F - 30.0 °F 23% 29.74 in 10.0 mi WSW 16.1 mph 25.3 mph N/A   Clear
3:53 PM 70.0 °F - 28.0 °F 21% 29.73 in 10.0 mi WSW 18.4 mph 24.2 mph N/A   Clear
4:53 PM 69.1 °F - 28.9 °F 22% 29.76 in 10.0 mi SW 15.0 mph 19.6 mph N/A   Clear
5:53 PM 68.0 °F - 26.1 °F 21% 29.78 in 10.0 mi WSW 12.7 mph - N/A   Clear
6:53 PM 64.0 °F - 35.1 °F 34% 29.81 in 10.0 mi WNW 6.9 mph 18.4 mph N/A   Clear
7:53 PM 57.0 °F - 37.0 °F 47% 29.83 in 10.0 mi WNW 5.8 mph - N/A   Clear
8:53 PM 52.0 °F - 37.9 °F 59% 29.83 in 10.0 mi NW 5.8 mph - N/A   Clear
9:53 PM 46.0 °F 44.8 °F 41.0 °F 83% 29.84 in 10.0 mi West 3.5 mph - N/A   Clear
10:53 PM 46.0 °F 42.5 °F 37.9 °F 73% 29.84 in 10.0 mi West 6.9 mph - N/A   Clear
11:53 PM 45.0 °F 42.6 °F 37.9 °F 76% 29.85 in 10.0 mi NE 4.6 mph - N/A   Clear